TimeCST,TemperatureF,Dew PointF,Humidity,Sea Level PressureIn,VisibilityMPH,Wind Direction,Wind SpeedMPH,Gust SpeedMPH,PrecipitationIn,Events,Conditions,WindDirDegrees,DateUTC
12:53 AM,34.0,21.9,61,30.34,9.0,West,6.9,-,0.00,,Mostly Cloudy,280,2013-02-16 06:53:00
1:53 AM,32.0,24.1,73,30.36,10.0,North,11.5,-,N/A,,Partly Cloudy,350,2013-02-16 07:53:00
2:53 AM,27.0,23.0,85,30.37,10.0,NNW,8.1,-,N/A,,Partly Cloudy,330,2013-02-16 08:53:00
3:53 AM,28.0,19.9,72,30.36,10.0,NW,9.2,-,N/A,,Clear,320,2013-02-16 09:53:00
4:53 AM,26.1,16.0,66,30.36,10.0,NW,8.1,-,N/A,,Clear,320,2013-02-16 10:53:00
5:53 AM,24.8,14.0,64,30.36,10.0,NW,8.1,-,N/A,,Clear,310,2013-02-16 11:53:00
6:53 AM,24.1,15.1,69,30.38,10.0,NW,8.1,-,N/A,,Clear,320,2013-02-16 12:53:00
7:53 AM,26.1,16.0,66,30.40,10.0,WNW,6.9,-,N/A,,Clear,300,2013-02-16 13:53:00
8:53 AM,30.0,17.1,59,30.41,10.0,NW,9.2,-,N/A,,Clear,310,2013-02-16 14:53:00
9:53 AM,33.1,16.0,50,30.41,10.0,NNW,8.1,-,N/A,,Clear,330,2013-02-16 15:53:00
10:53 AM,36.0,14.0,41,30.40,10.0,North,5.8,-,N/A,,Clear,350,2013-02-16 16:53:00
11:53 AM,37.9,10.0,32,30.37,10.0,Variable,3.5,-,N/A,,Partly Cloudy,0,2013-02-16 17:53:00
12:53 PM,37.9,10.0,32,30.32,10.0,SSE,5.8,-,N/A,,Overcast,150,2013-02-16 18:53:00
1:53 PM,39.9,10.0,29,30.27,10.0,South,8.1,-,N/A,,Overcast,170,2013-02-16 19:53:00
2:53 PM,42.1,12.0,29,30.23,10.0,SSW,11.5,-,N/A,,Overcast,200,2013-02-16 20:53:00
3:53 PM,44.1,12.9,28,30.20,10.0,South,15.0,18.4,N/A,,Mostly Cloudy,170,2013-02-16 21:53:00
4:53 PM,45.0,14.0,29,30.18,10.0,South,13.8,-,N/A,,Scattered Clouds,180,2013-02-16 22:53:00
5:53 PM,44.1,16.0,32,30.17,10.0,South,8.1,-,N/A,,Mostly Cloudy,180,2013-02-16 23:53:00
6:53 PM,39.9,16.0,38,30.15,10.0,SE,11.5,-,N/A,,Clear,140,2013-02-17 00:53:00
7:53 PM,37.9,17.1,43,30.15,10.0,SE,9.2,-,N/A,,Clear,130,2013-02-17 01:53:00
8:53 PM,37.0,17.1,44,30.13,10.0,SSE,8.1,-,N/A,,Clear,150,2013-02-17 02:53:00
9:53 PM,37.9,16.0,41,30.12,10.0,SSE,10.4,-,N/A,,Clear,160,2013-02-17 03:53:00
10:53 PM,37.0,18.0,46,30.10,10.0,SSE,8.1,-,N/A,,Clear,160,2013-02-17 04:53:00
11:53 PM,36.0,19.0,50,30.09,10.0,SE,5.8,-,N/A,,Clear,130,2013-02-17 05:53:00